Location: Maiden
(35.5760°N, 81.2120°W)
Time: 02:41:16
(UTC-04:00)

A-11 Canister half - Pass Details

Date: 05 August 2020
Orbit: 1527 x 1682 km, 47.3° (Epoch: 25 September)

Event Time Altitude Azimuth Distance (km) Brightness Sun altitude
Rises 12:23:03 0° 200° (SSW) 4,880 11.8 65.9°
Reaches altitude 10° 12:26:30 10° 193° (SSW) 3,909 11.5 66.3°
Maximum altitude 12:35:25 37° 130° (SE) 2,400 11.3 67.5°
Drops below altitude 10° 12:44:21 10° 68° (ENE) 3,940 11.3 68.5°
Sets 12:47:49 0° 60° (ENE) 4,922 11.7 68.8°
